Location: Bu�n Treun
(12.1333°N, 108.3167°E)
Time: 12:43:05
(UTC+00:00)

SWIFT - Pass Details

Date: 13 July 2020
Orbit: 545 x 560 km, 20.6° (Epoch: 06 August)

Event Time Altitude Azimuth Distance (km) Brightness Sun altitude
Exits shadow 20:38:45 42° 125° (SE) 794 3.2 -25.1°
Drops below altitude 10° 20:41:39 10° 114° (ESE) 1,823 5.4 -24.5°
Sets 20:43:57 0° 112° (ESE) 2,719 6.4 -24.0°
